Jackson, TN

4:02 PM CST on December 10, 2019 (GMT -0600)
McKellar-Sipes Regional

Weather History for KMKL - November, 2019

Change the Weather History Date:

Saturday, November 16, 2019

  Actual Average Record
Temperature  
Mean Temperature 40 °F 50 °F  
Max Temperature 57 °F 61 °F 80 °F (1958)
Min Temperature 22 °F 39 °F 21 °F (1982)
Degree Days  
Heating Degree Days 26 15  
Month to date heating degree days 382 200  
Since 1 July heating degree days 576 414  
Cooling Degree Days 0 0  
Month to date cooling degree days 0 2  
Year to date cooling degree days 1948 1693  
Moisture  
Dew Point 28 °F    
Average Humidity 70    
Maximum Humidity 92    
Minimum Humidity 42    
Precipitation  
Precipitation 0.00 in 0.17 in 1.19 in (1993)
Month to date precipitation 1.42 2.37  
Year to date precipitation 58.16 45.39  
Sea Level Pressure  
Sea Level Pressure 30.23 in    
Wind  
Wind Speed 4 mph ()    
Max Wind Speed 12 mph    
Max Gust Speed 15 mph    
Visibility 9.5 miles    
Events      
T = Trace of Precipitation, MM = Missing Value Source: Averaged Metar Reports

Daily Weather History Graph

Daily Weather History Graph

Search for Another Location

Airport or City:

Astronomy

Nov. 16, 2019 Rise Set
Actual Time 6:32 AM CST 4:48 PM CST
Civil Twilight 6:04 AM CST 5:15 PM CST
Nautical Twilight 5:34 AM CST 5:46 PM CST
Astronomical Twilight 5:03 AM CST 6:16 PM CST
Moon 8:24 PM CST (11/16) 10:22 AM CST (11/16)
Length of Visible Light 11h 10m
Length of Day
10h 16m
Waning Gibbous, 82% of the Moon is Illuminated
Nov 16
Waning Gibbous
Nov 19
Last Quarter
Nov 26
New
Dec 4
First Quarter
Dec 11
Full

Hourly Weather History & Observations

Time (CST) Temp. Windchill Dew Point Humidity Pressure Visibility Wind Dir Wind Speed Gust Speed Precip Events Conditions
12:53 AM 28.0 °F 21.7 °F 21.9 °F 78% 30.30 in 10.0 mi North 5.8 mph - N/A   Clear
1:53 AM 27.0 °F 21.6 °F 21.0 °F 78% 30.30 in 10.0 mi North 4.6 mph - N/A   Clear
2:53 AM 25.0 °F - 21.9 °F 88% 30.29 in 10.0 mi Calm Calm - N/A   Clear
3:53 AM 26.1 °F 20.5 °F 21.9 °F 84% 30.28 in 9.0 mi North 4.6 mph - N/A   Clear
4:53 AM 25.0 °F - 21.9 °F 88% 30.29 in 9.0 mi Calm Calm - N/A   Clear
5:53 AM 25.0 °F 19.3 °F 21.9 °F 88% 30.30 in 8.0 mi North 4.6 mph - N/A   Clear
6:53 AM 26.1 °F 19.4 °F 23.0 °F 88% 30.31 in 6.0 mi North 5.8 mph - N/A   Clear
7:53 AM 33.1 °F 26.9 °F 28.0 °F 82% 30.31 in 7.0 mi NNE 6.9 mph - N/A   Clear
8:53 AM 37.9 °F 31.5 °F 28.9 °F 70% 30.31 in 8.0 mi NE 9.2 mph - N/A   Clear
9:53 AM 44.1 °F 40.8 °F 28.9 °F 55% 30.30 in 10.0 mi NE 5.8 mph - N/A   Clear
10:53 AM 48.9 °F - 30.0 °F 48% 30.27 in 10.0 mi NNE 10.4 mph - N/A   Clear
11:53 AM 53.1 °F - 32.0 °F 45% 30.25 in 10.0 mi NNE 9.2 mph - N/A   Clear
12:53 PM 55.0 °F - 33.1 °F 43% 30.21 in 10.0 mi North 10.4 mph - N/A   Clear
1:53 PM 55.9 °F - 33.1 °F 42% 30.18 in 10.0 mi North 5.8 mph - N/A   Clear
2:53 PM 55.9 °F - 34.0 °F 44% 30.17 in 10.0 mi North 9.2 mph - N/A   Clear
3:53 PM 55.0 °F - 33.1 °F 43% 30.17 in 10.0 mi North 9.2 mph - N/A   Clear
4:53 PM 48.0 °F - 32.0 °F 54% 30.16 in 10.0 mi NE 5.8 mph - N/A   Clear
5:53 PM 43.0 °F - 30.9 °F 62% 30.17 in 10.0 mi Calm Calm - N/A   Clear
6:53 PM 39.9 °F - 30.9 °F 70% 30.17 in 10.0 mi Calm Calm - N/A   Clear
7:53 PM 34.0 °F - 30.0 °F 85% 30.17 in 10.0 mi Calm Calm - N/A   Clear
8:53 PM 30.9 °F - 28.0 °F 89% 30.17 in 10.0 mi Calm Calm - N/A   Clear
9:53 PM 33.1 °F - 28.9 °F 85% 30.16 in 10.0 mi Calm Calm - N/A   Clear
10:53 PM 30.9 °F - 27.0 °F 85% 30.15 in 10.0 mi Calm Calm - N/A   Clear
11:53 PM 30.0 °F - 28.0 °F 92% 30.14 in 10.0 mi Calm Calm - N/A   Clear